Theta_e
289 285 283 286 289 289 289 288 288 292 299 295 296 298 302 309 310 310 312 313 314 315 319 324 327 332 333 333 332 332 330 330 329 329 328 330 329 331 333 334 334 334 334 333
285 281 285 286 285 285 285 284 285 291 294 292 292 293 298 302 306 310 311 312 313 315 317 319 326 327 331 332 332 332 331 331 329 329 329 331 331 333 333 334 334 335 336 335
281 283 286 284 283 281 282 282 283 284 289 292 290 288 291 297 301 304 307 312 314 314 315 317 320 327 328 330 332 332 332 332 329 330 331 331 334 333 331 331 333 335 335 333
283 285 284 283 281 282 278 285 284 283 283 280 290 280 289 293 294 299 302 305 310 313 315 316 317 324 328 328 333 333 333 333 331 331 331 331 330 328 331 332 335 335 335 333
281 282 282 281 282 284 280 285 285 285 282 283 283 281 286 292 291 295 298 304 307 312 314 315 316 318 327 331 332 333 333 333 334 333 335 333 331 332 333 333 335 333 333 332
284 288 286 284 286 286 286 283 282 283 282 275 281 281 282 287 291 294 298 301 303 307 312 315 317 318 319 330 334 334 332 332 334 335 335 333 332 332 333 333 331 330 331 329
282 283 286 287 283 286 285 280 274 272 273 272 282 280 283 290 292 295 298 301 304 306 307 311 314 316 316 321 329 333 333 331 332 333 334 334 333 333 333 332 330 329 322 316
276 274 282 286 283 281 282 281 274 269 271 275 282 276 283 293 296 297 298 300 301 302 307 309 312 315 317 315 321 327 331 330 330 329 329 332 332 327 321 318 314 312 310 310
275 275 284 284 285 285 280 277 283 276 277 273 277 282 287 292 291 294 296 298 300 302 303 307 310 313 314 317 319 322 326 325 322 318 318 316 315 313 310 309 309 307 307 306
280 272 280 283 287 286 283 284 276 277 268 268 274 278 280 286 288 291 293 294 297 301 301 303 305 309 313 312 312 313 314 311 311 311 311 309 307 306 305 304 302 301 301 301
280 276 277 282 280 280 280 279 279 279 277 271 270 276 288 288 290 290 291 294 295 297 299 300 302 305 306 305 305 304 306 304 303 302 302 301 300 300 300 299 298 298 298 298
282 278 272 275 282 284 283 280 280 274 273 276 275 275 288 288 289 291 291 292 295 296 296 297 299 301 300 299 298 298 299 299 301 301 299 298 296 296 296 295 296 296 294 295
282 276 270 273 279 283 279 281 282 280 278 274 272 275 288 288 289 290 290 292 294 295 295 295 295 298 296 295 294 295 295 295 296 296 297 295 293 293 292 292 293 293 292 292
284 277 273 270 273 278 274 276 278 277 271 273 274 276 282 285 287 289 291 292 293 294 294 293 293 294 293 292 292 290 291 292 293 293 292 291 290 290 289 289 289 290 290 289
282 273 275 277 277 277 276 274 275 274 275 272 275 276 281 284 287 288 291 292 292 293 293 292 292 292 291 290 289 289 289 290 291 290 289 288 288 287 286 286 287 287 286 286
282 274 276 272 276 276 274 276 276 276 277 277 277 277 284 287 288 288 289 291 291 292 292 292 291 290 288 288 287 287 287 287 287 286 285 285 285 284 284 284 284 284 284 284
278 276 273 269 275 273 269 273 275 276 279 279 275 281 287 285 287 289 290 291 292 293 292 290 289 289 288 287 286 284 284 285 285 284 283 283 283 283 283 283 283 282 282 283
277 276 275 271 272 264 275 281 281 279 280 282 283 285 286 287 289 290 292 292 292 293 292 289 289 288 286 285 284 284 284 283 283 283 283 283 283 282 282 282 281 281 282 282
280 277 272 269 269 273 275 279 278 277 277 283 283 285 286 288 289 289 292 293 293 294 292 290 289 286 285 283 283 283 282 282 282 281 281 281 282 281 281 281 281 281 281 281
277 279 274 270 266 265 276 281 285 284 273 284 284 283 283 285 280 285 292 293 292 290 287 286 285 284 284 283 283 282 281 281 280 280 280 281 281 281 281 280 280 280 281 279
272 272 270 271 269 273 279 281 283 271 275 285 283 283 282 282 286 290 290 289 288 287 285 286 286 285 284 284 283 282 281 280 280 279 279 279 280 280 280 279 279 279 279 279
272 271 270 271 269 267 282 280 275 280 284 283 284 285 284 287 289 289 287 286 285 284 284 283 284 283 283 283 282 281 280 280 279 279 278 278 278 279 279 279 278 278 279 279
271 276 276 275 274 282 283 282 285 285 282 283 283 283 287 288 286 286 286 285 285 285 284 284 284 282 282 282 283 281 279 279 278 278 277 277 278 279 279 279 278 278 279 280
277 280 275 275 279 280 282 284 284 284 283 284 285 286 288 287 286 285 287 285 284 284 283 283 283 282 280 281 280 281 280 279 278 277 276 276 276 276 277 279 279 280 279 278
279 279 276 276 279 281 282 284 285 284 285 284 285 286 287 288 286 286 285 284 285 284 283 283 281 281 281 281 280 280 280 278 278 277 276 277 278 277 277 278 278 278 277 279
281 278 275 276 282 282 282 283 284 283 283 285 285 286 285 287 286 286 285 285 284 282 282 281 281 281 281 280 279 278 278 277 277 277 277 278 278 277 277 277 275 275 276 277
Wind_Speed
3 5 8 8 9 12 14 14 15 16 6 6 15 20 20 22 21 16 20 21 22 23 18 16 16 18 18 18 19 19 18 17 12 10 10 9 9 7 9 9 11 11 11 11
6 6 7 7 7 11 13 14 15 15 15 14 19 25 21 22 23 22 19 18 20 21 21 18 16 17 19 20 19 18 19 18 15 11 11 9 9 10 9 8 10 11 10 10
10 8 5 7 8 8 11 14 14 16 11 17 19 28 27 25 24 23 23 22 21 18 19 18 18 18 18 19 20 18 17 17 15 14 11 8 10 9 8 7 8 9 10 8
6 4 7 9 8 6 11 8 9 14 12 11 8 18 18 23 32 29 25 24 22 22 20 17 18 18 18 18 16 18 17 18 15 15 12 15 11 10 8 8 8 8 11 11
3 8 9 11 8 4 6 5 10 10 13 14 19 15 9 19 20 15 25 23 23 23 22 22 19 15 18 17 14 15 17 17 17 18 17 13 11 9 9 9 10 8 6 6
15 13 9 8 8 7 7 9 9 11 10 11 18 17 12 15 16 13 17 18 19 22 21 19 17 15 14 13 13 13 15 16 15 17 18 16 15 12 8 6 5 5 4 4
13 7 4 5 8 7 7 6 4 6 8 11 7 15 20 14 19 16 12 7 8 9 16 18 16 14 13 13 13 12 16 16 15 16 16 16 15 14 11 9 5 6 5 4
7 3 3 4 6 8 8 11 8 8 7 11 12 10 15 5 3 11 14 9 9 8 9 11 11 14 11 9 9 12 13 13 14 13 14 13 12 3 6 9 7 6 6 5
6 6 6 14 11 8 2 9 15 17 17 12 9 14 18 11 9 8 7 7 8 10 4 10 9 9 8 6 7 9 11 6 5 8 7 8 9 11 10 11 8 6 6 4
5 10 7 7 5 11 14 3 5 8 7 13 11 15 11 8 15 12 10 11 12 10 8 7 7 5 1 5 3 6 9 10 9 10 9 9 10 10 9 10 10 9 7 8
3 4 6 8 5 12 6 7 9 6 7 7 13 9 5 14 11 7 11 11 11 11 10 8 5 3 3 4 4 7 7 12 12 12 11 12 11 10 9 8 9 11 8 9
5 5 10 17 20 18 10 16 13 7 12 14 15 18 20 21 18 16 15 10 9 9 8 7 5 4 4 6 7 7 10 9 8 15 13 13 12 10 8 10 5 8 11 9
4 4 9 12 3 3 5 8 11 13 8 13 16 14 17 21 21 20 14 14 9 8 8 3 4 3 4 5 8 8 8 11 9 10 11 12 13 11 11 9 6 8 9 9
5 9 13 14 15 13 16 20 19 12 10 19 16 23 24 24 21 20 20 18 14 8 8 6 4 4 3 4 6 9 10 9 10 12 10 14 12 11 10 10 9 2 10 9
6 15 15 18 21 19 22 26 24 19 23 18 26 27 27 25 23 22 20 17 15 10 9 8 6 6 4 5 7 8 9 9 10 11 11 12 10 12 10 7 11 9 8 8
10 13 11 14 17 21 25 25 21 26 26 25 27 30 32 27 23 22 19 16 14 13 9 8 5 7 7 6 5 8 10 10 10 11 12 10 11 10 10 8 8 8 7 8
8 7 6 16 13 14 20 20 20 20 22 22 22 27 24 21 20 15 16 14 13 10 8 9 9 7 7 8 5 7 9 9 11 10 10 10 10 10 9 8 8 8 7 7
15 12 8 12 8 13 12 11 10 12 18 17 20 22 20 18 17 15 13 14 10 9 8 9 9 9 8 9 7 8 8 9 9 9 9 7 8 10 8 9 7 8 5 5
13 9 6 6 8 20 20 6 0 6 12 14 14 12 14 13 15 23 18 15 13 7 8 8 8 10 9 10 7 7 8 9 9 7 7 5 7 9 9 8 6 6 5 5
6 10 9 2 7 8 5 6 4 2 12 8 1 10 14 15 14 13 12 8 6 11 12 10 10 9 11 8 7 7 7 8 8 6 7 6 5 7 8 7 6 3 5 4
4 7 15 12 10 13 16 11 2 3 8 5 3 13 17 14 14 15 3 8 12 11 12 11 10 8 8 9 8 7 7 7 6 6 7 6 5 7 6 6 4 4 4 4
7 5 6 7 8 15 3 4 10 2 4 7 10 11 15 14 13 4 8 10 12 14 12 8 9 7 6 7 7 8 7 7 7 6 6 5 5 5 5 5 3 2 3 4
7 9 3 11 10 8 5 10 10 5 12 10 11 12 12 4 4 5 10 13 14 16 13 12 9 9 7 5 5 7 7 8 6 5 5 5 5 4 3 4 4 4 2 2
7 11 8 3 6 17 20 21 16 17 16 14 7 11 6 1 7 8 8 8 9 9 10 8 11 10 7 6 5 6 8 7 7 7 6 6 6 5 3 2 1 2 3 3
10 2 8 15 23 23 23 18 18 13 13 8 5 2 6 5 6 8 8 8 7 7 5 6 6 7 7 6 5 6 7 8 7 5 5 5 4 6 5 2 2 1 2 2
10 11 11 10 6 8 8 1 3 10 9 13 8 4 5 7 10 10 10 9 9 8 6 6 6 6 6 6 5 5 6 8 8 7 6 6 5 5 4 4 4 2 4 0
Wind_Direction
1 276 249 316 303 322 322 298 292 240 174 312 256 256 257 253 255 245 243 234 236 233 223 210 200 202 201 201 204 203 193 190 194 186 186 208 206 205 215 219 219 218 215 211
241 263 31 356 315 294 283 273 267 271 283 285 273 264 261 259 258 258 244 241 247 236 234 217 193 203 204 201 202 204 202 189 195 191 195 200 204 211 215 209 214 213 210 214
312 345 313 298 299 282 263 267 272 269 298 294 283 272 260 254 255 257 260 259 248 238 241 230 210 197 209 207 203 201 199 192 194 193 189 192 207 222 208 208 208 203 201 205
293 340 314 304 287 294 276 312 285 267 269 262 321 278 258 230 233 231 238 241 250 243 245 237 231 206 206 210 208 205 203 197 189 190 191 201 204 201 204 201 204 200 194 201
337 311 307 290 296 290 265 339 298 280 255 269 263 271 277 223 253 245 229 230 235 237 241 240 232 224 212 209 202 203 206 207 190 192 202 199 204 203 204 202 185 198 184 183
270 284 285 276 296 277 304 288 254 260 261 254 244 246 265 247 255 246 249 252 237 229 233 240 240 225 222 211 202 193 205 206 203 196 200 201 201 206 204 161 160 176 146 110
308 240 250 266 270 214 244 263 259 222 215 241 239 217 247 300 305 301 308 319 319 283 247 233 234 238 206 209 199 200 202 204 200 199 203 207 206 205 199 185 163 137 111 79
337 285 207 146 270 302 246 242 258 241 243 289 225 235 234 215 333 292 237 287 294 273 290 281 256 231 220 209 205 206 204 205 200 202 207 207 212 113 85 98 94 88 86 93
310 268 334 290 274 245 2 232 257 282 286 280 257 248 263 248 258 263 253 281 301 314 298 309 311 276 252 172 199 212 196 189 113 112 112 98 108 114 115 102 103 102 106 105
343 292 287 309 291 244 244 311 261 214 256 250 260 251 255 222 241 257 296 324 342 337 320 319 301 271 8 84 100 106 124 108 98 98 99 95 93 95 100 99 91 81 60 75
316 261 283 300 236 279 238 228 219 285 250 270 270 259 7 40 22 13 355 346 330 326 324 317 311 276 144 115 113 101 103 117 112 101 100 100 92 84 88 100 108 104 94 63
199 296 287 283 277 271 263 280 256 241 244 248 258 269 302 307 305 273 312 312 319 301 300 308 282 218 161 125 106 100 102 93 104 115 114 101 88 85 72 68 88 87 105 101
156 233 300 302 212 86 263 304 290 304 313 277 268 273 281 296 304 294 286 289 296 290 290 278 276 238 157 142 121 113 110 112 104 103 114 109 109 103 99 98 60 111 108 101
255 250 248 263 285 319 296 293 283 286 281 274 272 283 279 279 285 289 289 291 293 277 265 244 205 226 176 137 130 117 109 107 115 113 108 104 103 105 108 95 124 95 91 91
248 262 259 260 272 283 282 276 274 263 256 257 268 274 273 276 273 283 292 293 285 273 253 237 203 165 157 129 120 107 102 107 115 112 104 105 110 112 99 87 87 77 72 82
229 267 281 267 270 272 273 270 266 260 254 254 254 262 260 272 283 276 280 297 284 262 240 216 190 158 149 147 124 113 106 105 103 100 101 101 96 98 105 105 108 96 93 85
236 255 270 278 291 312 284 259 241 246 244 240 248 253 268 273 275 270 274 281 277 265 223 186 181 168 142 123 124 109 106 106 105 104 107 110 113 107 108 98 88 90 91 97
255 256 269 281 306 255 246 297 288 265 268 271 268 272 270 273 280 286 266 269 273 252 198 179 169 145 124 101 100 102 98 94 93 95 92 102 105 104 106 100 102 102 104 111
235 244 264 259 257 285 288 297 221 208 281 282 278 302 322 322 310 273 267 249 268 214 171 159 141 122 117 103 99 95 93 91 93 107 110 101 119 118 101 104 111 109 129 101
223 230 232 162 266 260 263 58 55 261 286 90 156 274 280 285 269 283 287 210 152 128 116 121 122 119 110 106 106 107 123 125 127 129 111 99 94 116 126 120 106 88 71 106
187 210 227 234 250 263 262 279 290 254 278 173 288 296 289 262 255 267 127 113 124 135 119 121 125 123 138 136 146 144 130 118 108 118 116 110 107 92 100 100 92 118 142 127
207 204 203 212 232 257 292 129 189 292 275 291 323 304 294 262 243 200 135 133 143 127 135 142 145 149 163 152 142 129 109 108 107 105 105 118 105 90 88 97 128 137 144 145
245 220 252 215 229 248 206 253 234 253 285 307 310 308 309 63 118 120 146 151 150 148 153 157 162 144 144 135 122 130 128 126 116 100 86 82 76 83 105 152 160 169 170 138
240 247 242 312 259 250 254 265 266 263 264 277 280 299 300 343 126 148 164 158 137 145 152 154 147 150 138 143 140 120 141 139 133 137 143 144 152 152 158 168 170 159 170 140
254 206 231 261 272 275 274 263 265 303 250 253 249 255 267 157 164 149 141 140 155 159 123 136 131 131 145 152 152 125 140 139 141 129 141 154 159 183 167 156 148 149 66 358
207 216 203 232 248 248 287 360 316 308 301 243 253 256 259 173 171 171 161 166 162 159 140 138 146 154 151 141 132 139 146 154 153 164 171 178 171 168 174 171 162 75 42 92